[[{"header":{"parameterUnit":"m.s-1","parameterCategory":2,"la1":30.2991,"la2":30.254,"lo1":-89.0895,"lo2":-89.0444,"dy":0.0017,"dx":0.0017,"nx":28,"ny":28,"refTime":"2024-08-15T09:00:00:Z","depth":"0","parameterNumber":2,"parameterNumberName":"U-component_of_CURRENTS"},"data":[0,0,0,0,0,0,0,0,0,0,0,0,0,0,0,0,0,0,0,0,0,0,0,0,0,0,0,0,0,0,0,0,0,0,0,0,0,0,0,0,0,0,0,0,0,0,0,0,0,0,0,0,0,0,0,0,0,0,-0.4105,-0.4104,0,-0.4066,-0.4066,-0.4065,-0.4116,-0.4118,-0.412,-0.4123,-0.4156,-0.4155,-0.4154,0,0,0,0,0,0,0,0,0,0,0,0,0,-0.4014,-0.4016,-0.4105,-0.4104,-0.4104,-0.4067,-0.4066,-0.4065,-0.4115,-0.4118,-0.4121,-0.4124,-0.4157,-0.4155,-0.4154,0,0,0,0,0,0,0,0,0,0,0,0,0,-0.4018,-0.4017,-0.4105,-0.4129,-0.4131,-0.4067,-0.4065,-0.4064,-0.4115,-0.4118,-0.4122,-0.4125,-0.4157,-0.4155,-0.4154,-0.4072,0,0,-0.4148,-0.4147,0,0,0,0,0,0,0,0,-0.4018,-0.402,-0.4126,-0.4127,-0.413,-0.4104,-0.4046,-0.4072,-0.4114,-0.4116,-0.4123,-0.4127,-0.4146,-0.4145,-0.4122,-0.4074,-0.4075,-0.4148,-0.4146,-0.4146,-0.4145,0,0,0,0,0,0,0,-0.4018,-0.4021,-0.4084,-0.4125,-0.4128,-0.4071,-0.4077,-0.4049,-0.4109,-0.4116,-0.4121,-0.4123,-0.4148,-0.4124,-0.4124,-0.4076,-0.4148,-0.4146,-0.4145,-0.4144,-0.3856,-0.385,0,0,0,0,0,0,-0.404,-0.4022,-0.4086,-0.4084,-0.4087,-0.4071,-0.4077,-0.4104,-0.4108,-0.4113,-0.4121,-0.4126,-0.4125,-0.4126,-0.4125,-0.395,-0.4146,-0.4144,-0.4143,-0.3863,-0.3855,-0.3848,0,0,0,0,0,0,-0.4039,-0.4047,-0.4087,-0.4054,-0.4056,-0.4072,-0.41,-0.4102,-0.4104,-0.4112,-0.4118,-0.4125,-0.4128,-0.4128,-0.4069,-0.3956,-0.4143,-0.4141,-0.387,-0.386,-0.3851,-0.3652,0,0,0,0,0,0,-0.4036,-0.4047,-0.4052,-0.4057,-0.4059,-0.4015,-0.4097,-0.4099,-0.4102,-0.4109,-0.4117,-0.4122,-0.4131,-0.4071,-0.4067,-0.3957,-0.414,-0.3879,-0.3866,-0.3854,-0.3666,-0.3636,-0.361,0,0,0,0,0,-0.4034,-0.4005,-0.4054,-0.406,-0.4075,-0.4012,-0.4004,-0.4023,-0.4099,-0.4049,-0.4061,-0.4123,-0.399,-0.4065,-0.4061,-0.3948,-0.3885,-0.387,-0.3855,-0.3679,-0.3642,-0.3611,0,0,0,0,0,0,-0.39,-0.4009,-0.4061,-0.4053,-0.4031,-0.4022,-0.3984,-0.4025,-0.3996,-0.4024,-0.406,-0.4059,-0.3948,-0.3974,-0.4056,-0.382,-0.3938,-0.3922,-0.3805,-0.3771,-0.3743,-0.3663,-0.4138,0,0,0,0,0,-0.3895,-0.3936,-0.3981,-0.3952,-0.3965,-0.3988,-0.3971,-0.399,-0.3978,-0.3973,-0.3974,-0.3953,-0.3873,-0.3854,-0.3794,-0.3694,-0.369,-0.3607,-0.3579,-0.3555,-0.348,-0.3389,-0.3347,-0.38,-0.38,-0.38,0,0,-0.3814,-0.3888,-0.3895,-0.3932,-0.3935,-0.3868,-0.3983,-0.3949,-0.3855,-0.3978,-0.3856,-0.3859,-0.3821,-0.3677,-0.363,-0.3699,-0.3426,-0.3537,-0.3518,-0.3453,-0.3369,-0.3326,-0.3287,-0.379,-0.3792,-0.3793,0,0,-0.3646,-0.3765,-0.3734,-0.3735,-0.3763,-0.3775,-0.3775,-0.3779,-0.3754,-0.367,-0.3688,-0.3613,-0.3562,-0.3452,-0.3408,-0.3187,-0.3274,-0.3197,-0.3001,-0.2915,-0.2877,-0.2844,-0.2804,-0.2769,-0.3193,-0.3193,-0.3192,0,-0.3561,-0.3538,-0.3682,-0.3636,-0.3614,-0.3734,-0.3633,-0.3594,-0.3556,-0.3508,-0.3607,-0.3433,-0.3418,-0.3181,-0.3086,-0.3117,-0.3122,-0.3149,-0.288,-0.2847,-0.2817,-0.2784,-0.2748,-0.3181,-0.3182,-0.3184,-0.3185,0,-0.3376,-0.3341,-0.331,-0.333,-0.3307,-0.3246,-0.3258,-0.3218,-0.3271,-0.324,-0.3085,-0.3056,-0.2957,-0.2924,-0.2938,-0.2677,-0.277,-0.2858,-0.2979,-0.276,-0.2739,-0.2705,-0.3165,-0.3169,-0.3172,-0.3175,0,0,-0.3231,-0.3201,-0.3182,-0.314,-0.3167,-0.3126,-0.2999,-0.2907,-0.2832,-0.2802,-0.2671,-0.2496,-0.2551,-0.2492,-0.2499,-0.2402,-0.2198,-0.2527,-0.2529,-0.2506,-0.2045,-0.1971,-0.193,-0.2278,-0.227,-0.2264,-0.2127,0,-0.3041,-0.2891,-0.2929,-0.2741,-0.2674,-0.2756,-0.2623,-0.2567,-0.2564,-0.2468,-0.2427,-0.232,-0.2364,-0.2351,-0.2228,-0.2233,-0.2095,-0.2228,-0.2239,-0.2237,-0.2214,-0.1879,-0.1775,-0.163,-0.2095,-0.209,-0.2086,0,-0.2852,-0.2789,-0.2586,-0.2497,-0.2482,-0.239,-0.2312,-0.2212,-0.212,-0.2125,-0.2036,-0.2067,-0.1878,-0.2005,-0.1809,-0.1919,-0.1899,-0.1911,-0.191,-0.1868,-0.2094,-0.1914,-0.1552,-0.1565,-0.2035,-0.2039,-0.2043,0,-0.2704,-0.2552,-0.2395,-0.2366,-0.2276,-0.2204,-0.2178,-0.2098,-0.2039,-0.1927,-0.1923,-0.1754,-0.1728,-0.1645,-0.1658,-0.1743,-0.1508,-0.1659,-0.154,-0.1543,-0.1451,-0.1454,-0.1099,-0.1425,-0.1426,-0.1426,-0.1426,0,-0.2514,-0.2391,-0.2318,-0.2235,-0.2076,-0.2082,-0.1939,-0.1895,-0.1842,-0.1755,-0.1743,-0.1657,-0.1641,-0.156,-0.1555,-0.1415,-0.1418,-0.1376,-0.1433,-0.1381,-0.1379,-0.1393,-0.1488,-0.1421,-0.1422,-0.1423,-0.1424,0,-0.2323,-0.2298,-0.2116,-0.2005,-0.1993,-0.1885,-0.187,-0.1808,-0.1753,-0.1655,-0.1636,-0.1571,-0.1453,-0.1421,-0.1313,-0.1284,-0.1149,-0.1132,-0.1084,-0.1128,-0.1027,-0.1117,-0.0831,-0.0804,-0.095,-0.0946,-0.0943,0,-0.2188,-0.206,-0.1944,-0.1926,-0.1878,-0.1789,-0.1778,-0.1754,-0.1716,-0.1595,-0.155,-0.1422,-0.1263,-0.107,-0.1009,-0.0894,-0.0977,-0.0749,-0.0809,-0.0855,-0.1001,-0.1105,-0.1114,-0.065,-0.0645,-0.0641,-0.0637,0,-0.19,-0.1877,-0.179,-0.1747,-0.1736,-0.1651,-0.1627,-0.1597,-0.1567,-0.1451,-0.1265,-0.112,-0.0953,-0.0726,-0.0609,-0.0592,-0.0728,-0.0655,-0.0682,-0.0628,-0.0731,-0.0795,-0.0981,-0.0598,-0.0602,-0.0605,-0.0607,-0.0609,-0.1707,-0.1647,-0.1608,-0.1552,-0.156,-0.1478,-0.1354,-0.1353,-0.1205,-0.0992,-0.0981,-0.0675,-0.0447,-0.0237,-0.0294,-0.0287,-0.0425,-0.028,-0.0363,-0.0446,-0.0419,-0.0504,-0.0209,-0.0211,-0.0212,-0.0213,-0.0214,0,-0.1477,-0.1484,-0.1446,-0.1378,-0.1291,-0.1326,-0.1235,-0.1082,-0.0847,-0.0736,-0.0486,-0.0091,0.0125,0.0132,0.0154,0.0054,-0.007,-0.0039,-0.0156,-0.0165,-0.0182,-0.0167,0.0129,0.0129,0.0129,0.0129,0.0129,0.0129,-0.137,-0.1332,-0.1345,-0.1122,-0.106,-0.0834,-0.0717,-0.0549,-0.0414,-0.0106,0.0108,0.0218,0.0361,0.041,0.0258,0.0163,0.0036,0.0009,-0.0087,-0.0135,-0.0166,-0.0196,-0.0193,0.0093,0.0093,-0.0011,-0.0012,-0.0013]},{"header":{"parameterUnit":"m.s-1","parameterCategory":2,"la1":30.2991,"la2":30.254,"lo1":-89.0895,"lo2":-89.0444,"dy":0.0017,"dx":0.0017,"nx":28,"ny":28,"refTime":"2024-08-15T09:00:00:Z","depth":"0","parameterNumber":3,"parameterNumberName":"V-component_of_CURRENTS"},"data":[0,0,0,0,0,0,0,0,0,0,0,0,0,0,0,0,0,0,0,0,0,0,0,0,0,0,0,0,0,0,0,0,0,0,0,0,0,0,0,0,0,0,0,0,0,0,0,0,0,0,0,0,0,0,0,0,0,0,-0.0621,-0.062,0,-0.0478,-0.0476,-0.0475,-0.0363,-0.0362,-0.0361,-0.036,-0.0209,-0.0206,-0.0202,0,0,0,0,0,0,0,0,0,0,0,0,0,-0.0708,-0.0707,-0.0621,-0.062,-0.0618,-0.0479,-0.0476,-0.0474,-0.0363,-0.0362,-0.0361,-0.036,-0.021,-0.0206,-0.0202,0,0,0,0,0,0,0,0,0,0,0,0,0,-0.0625,-0.0707,-0.0622,-0.0548,-0.0541,-0.0479,-0.0476,-0.0473,-0.0363,-0.0362,-0.0361,-0.036,-0.0211,-0.0206,-0.0201,-0.0194,0,0,-0.0186,-0.0184,0,0,0,0,0,0,0,0,-0.063,-0.0622,-0.0561,-0.0553,-0.0545,-0.044,-0.0451,-0.0381,-0.0363,-0.0427,-0.036,-0.0359,-0.0288,-0.0277,-0.0248,-0.0187,-0.0181,-0.0186,-0.0183,-0.0181,-0.0179,0,0,0,0,0,0,0,-0.0636,-0.0627,-0.0561,-0.0559,-0.0549,-0.0492,-0.048,-0.0437,-0.0363,-0.0421,-0.0414,-0.0403,-0.0283,-0.0253,-0.0244,-0.0178,-0.0186,-0.0182,-0.0178,-0.0177,-0.0036,-0.0035,0,0,0,0,0,0,-0.0667,-0.0633,-0.0566,-0.0557,-0.0589,-0.0492,-0.0478,-0.0472,-0.0364,-0.0347,-0.0405,-0.0399,-0.0262,-0.025,-0.0238,-0.0143,-0.0181,-0.0176,-0.0173,-0.0037,-0.0036,-0.0035,0,0,0,0,0,0,-0.0669,-0.0662,-0.0572,-0.0594,-0.0579,-0.0493,-0.0487,-0.047,-0.0446,-0.0352,-0.0334,-0.0399,-0.0261,-0.0245,-0.0204,-0.014,-0.0174,-0.0169,-0.0038,-0.0036,-0.0035,-0.0005,0,0,0,0,0,0,-0.0672,-0.0664,-0.066,-0.0597,-0.0579,-0.0533,-0.0488,-0.0468,-0.0443,-0.0434,-0.0341,-0.0325,-0.0259,-0.0212,-0.0199,-0.0134,-0.0165,-0.0039,-0.0037,-0.0036,-0.0007,-0.0003,-0.0,0,0,0,0,0,-0.0676,-0.0667,-0.066,-0.0652,-0.058,-0.0533,-0.0518,-0.0451,-0.0444,-0.0427,-0.0375,-0.0328,-0.0192,-0.0209,-0.0193,-0.0124,-0.0039,-0.0038,-0.0036,-0.0009,-0.0004,-0.0,0,0,0,0,0,0,-0.0707,-0.0653,-0.0645,-0.0623,-0.0587,-0.0516,-0.049,-0.047,-0.0416,-0.041,-0.0337,-0.0316,-0.0243,-0.0215,-0.0235,-0.0083,-0.0101,-0.0096,-0.0086,-0.0081,-0.0077,-0.0095,-0.0161,0,0,0,0,0,-0.0718,-0.0694,-0.0649,-0.0637,-0.062,-0.057,-0.0543,-0.0508,-0.0459,-0.0434,-0.0373,-0.0305,-0.0224,-0.0184,-0.0118,-0.006,-0.0071,-0.0003,0.0001,0.0004,-0.0003,-0.0033,-0.0034,-0.0029,-0.0029,-0.0029,0,0,-0.0738,-0.0698,-0.0692,-0.0641,-0.0607,-0.055,-0.0549,-0.0516,-0.0453,-0.0429,-0.0337,-0.0298,-0.0212,-0.0119,-0.0083,-0.0086,0.0008,0.0006,0.0009,-0.0,-0.0032,-0.0032,-0.0033,-0.0028,-0.0028,-0.0029,0,0,-0.074,-0.0726,-0.0697,-0.0654,-0.0603,-0.0558,-0.0561,-0.0502,-0.0459,-0.0397,-0.0341,-0.0291,-0.0182,-0.0095,-0.0038,0.0008,0.0021,0.004,0.0059,0.0031,0.0029,0.0028,0.0057,0.0058,0.005,0.0051,0.0051,0,-0.0763,-0.0708,-0.0686,-0.0628,-0.0579,-0.0564,-0.0509,-0.0456,-0.039,-0.0371,-0.0363,-0.0237,-0.0156,-0.0045,0.0004,0.0024,0.0006,0.0042,0.0034,0.0032,0.003,0.0059,0.0059,0.0052,0.0052,0.0052,0.0052,0,-0.0724,-0.0671,-0.0651,-0.0559,-0.0512,-0.047,-0.0399,-0.0367,-0.0337,-0.0298,-0.0235,-0.0163,-0.0099,-0.0037,0.0019,0.0069,0.0064,0.0033,0.0019,0.0031,0.0062,0.0062,0.0055,0.0054,0.0053,0.0053,0,0,-0.0796,-0.065,-0.064,-0.0592,-0.0469,-0.0447,-0.0341,-0.027,-0.0265,-0.0195,-0.0185,-0.002,-0.0055,0.0004,0.0054,0.0064,0.0087,0.0051,0.0048,0.0075,0.0047,0.0082,0.0086,0.0029,0.0028,0.0027,0.009,0,-0.077,-0.0653,-0.0572,-0.0476,-0.0419,-0.0349,-0.0277,-0.0219,-0.0184,-0.0179,-0.0119,-0.009,-0.0013,-0.0016,0.0014,0.0047,0.0079,0.0075,0.0034,0.0035,0.0059,0.0084,0.0122,0.0181,0.009,0.009,0.0089,0,-0.0745,-0.0669,-0.0559,-0.0455,-0.0433,-0.0377,-0.0315,-0.0249,-0.0211,-0.0202,-0.0176,-0.0166,-0.009,-0.0082,-0.0002,-0.0022,0.0026,0.0052,0.0053,0.0067,0.0068,0.0146,0.0184,0.026,0.0089,0.0089,0.0089,0,-0.0805,-0.0665,-0.0582,-0.0532,-0.0412,-0.0382,-0.0333,-0.0278,-0.0252,-0.0247,-0.0268,-0.0216,-0.0198,-0.0163,-0.0043,-0.0053,0.0004,-0.0013,0.0078,0.0083,0.0102,0.0109,0.0199,0.0021,0.002,0.002,0.002,0,-0.0786,-0.073,-0.0624,-0.058,-0.0552,-0.0455,-0.0445,-0.0401,-0.0371,-0.033,-0.0313,-0.0285,-0.0231,-0.0172,-0.009,0.0015,-0.0026,0.009,0.0091,0.0121,0.0128,0.0181,0.0209,0.0023,0.0022,0.0022,0.0021,0,-0.0827,-0.0744,-0.0674,-0.0581,-0.0569,-0.0558,-0.0496,-0.0477,-0.0464,-0.0413,-0.0411,-0.0347,-0.0259,-0.0183,-0.0101,-0.0025,0.011,0.01,0.0169,0.0177,0.0305,0.0333,0.04,0.0483,0.0183,0.0184,0.0185,0,-0.0813,-0.0776,-0.0707,-0.0689,-0.0641,-0.0618,-0.0579,-0.0529,-0.047,-0.0404,-0.0357,-0.0307,-0.0179,-0.0073,0.0006,0.0117,0.019,0.0228,0.0221,0.033,0.036,0.0368,0.0434,0.0285,0.0287,0.0288,0.0289,0,-0.0799,-0.079,-0.0748,-0.07,-0.0663,-0.0601,-0.0529,-0.05,-0.0385,-0.0318,-0.0152,-0.0074,-0.002,0.0106,0.0171,0.0238,0.0292,0.0259,0.033,0.0421,0.0472,0.0546,0.0268,0.0301,0.03,0.0299,0.0298,0.0298,-0.0802,-0.0799,-0.074,-0.0672,-0.0618,-0.0481,-0.0404,-0.0297,-0.015,0.0064,0.0093,0.0285,0.0268,0.0346,0.0379,0.0428,0.0409,0.0487,0.051,0.0507,0.0587,0.0367,0.0414,0.0413,0.0413,0.0412,0.0412,0,-0.0767,-0.0734,-0.0688,-0.0574,-0.0427,-0.0417,-0.0267,-0.0137,0.011,0.0276,0.0482,0.0691,0.0687,0.0627,0.0605,0.0682,0.0702,0.0723,0.0745,0.0801,0.0572,0.0576,0.0709,0.0709,0.0708,0.0708,0.0708,0.0708,-0.074,-0.0675,-0.0614,-0.0341,-0.0254,-0.0018,0.0107,0.0255,0.0393,0.0736,0.0942,0.1071,0.1014,0.0828,0.0835,0.0876,0.1,0.0969,0.1036,0.0872,0.0851,0.0832,0.0843,0.1029,0.103,0.1276,0.1278,0.128]}],[{"header":{"parameterUnit":"m.s-1","parameterCategory":2,"la1":30.2991,"la2":30.254,"lo1":-89.0895,"lo2":-89.0444,"dy":0.0017,"dx":0.0017,"nx":28,"ny":28,"refTime":"2024-08-15T09:00:00:Z","depth":"2","parameterNumber":2,"parameterNumberName":"U-component_of_CURRENTS"},"data":[0,0,0,0,0,0,0,0,0,0,0,0,0,0,0,0,0,0,0,0,0,0,0,0,0,0,0,0,0,0,0,0,0,0,0,0,0,0,0,0,0,0,0,0,0,0,0,0,0,0,0,0,0,0,0,0,0,0,-0.162,-0.1621,0,-0.1714,-0.1715,-0.1717,-0.1795,-0.1796,-0.1796,-0.1797,-0.1961,-0.1964,-0.1968,0,0,0,0,0,0,0,0,0,0,0,0,0,-0.1587,-0.1587,-0.162,-0.1621,-0.1622,-0.1714,-0.1715,-0.1717,-0.1795,-0.1796,-0.1796,-0.1797,-0.1959,-0.1964,-0.1969,0,0,0,0,0,0,0,0,0,0,0,0,0,-0.1637,-0.1587,-0.162,-0.1669,-0.1674,-0.1713,-0.1715,-0.1717,-0.1795,-0.1796,-0.1796,-0.1797,-0.1958,-0.1963,-0.1969,-0.1992,0,0,-0.1987,-0.199,0,0,0,0,0,0,0,0,-0.1634,-0.1638,-0.1661,-0.1665,-0.1671,-0.174,-0.1764,-0.1811,-0.1795,-0.1753,-0.1797,-0.1797,-0.189,-0.1901,-0.1923,-0.1999,-0.2006,-0.1988,-0.1991,-0.1994,-0.1996,0,0,0,0,0,0,0,-0.163,-0.1635,-0.1661,-0.1661,-0.1668,-0.1712,-0.172,-0.1773,-0.1821,-0.1757,-0.1762,-0.1765,-0.1894,-0.1917,-0.1927,-0.2009,-0.1988,-0.1993,-0.1997,-0.1999,-0.2144,-0.2144,0,0,0,0,0,0,-0.1605,-0.1631,-0.1658,-0.1664,-0.1649,-0.1712,-0.172,-0.172,-0.1819,-0.1833,-0.1765,-0.1769,-0.1906,-0.192,-0.1933,-0.1987,-0.1994,-0.1999,-0.2003,-0.2143,-0.2144,-0.2144,0,0,0,0,0,0,-0.1604,-0.1606,-0.1654,-0.1647,-0.1656,-0.171,-0.1711,-0.1722,-0.1757,-0.1823,-0.184,-0.1789,-0.1907,-0.1925,-0.2021,-0.1993,-0.2002,-0.2007,-0.2143,-0.2143,-0.2144,-0.208,0,0,0,0,0,0,-0.1603,-0.1605,-0.162,-0.1645,-0.1655,-0.1711,-0.171,-0.1723,-0.1755,-0.1762,-0.185,-0.1865,-0.1909,-0.2013,-0.2027,-0.2001,-0.2012,-0.2143,-0.2143,-0.2144,-0.2082,-0.2078,-0.2075,0,0,0,0,0,-0.1601,-0.1612,-0.162,-0.1624,-0.1665,-0.1712,-0.1724,-0.1767,-0.1756,-0.1796,-0.1855,-0.1863,-0.2024,-0.202,-0.2036,-0.201,-0.2142,-0.2143,-0.2144,-0.2083,-0.2079,-0.2075,0,0,0,0,0,0,-0.1622,-0.1621,-0.1631,-0.1646,-0.169,-0.1725,-0.175,-0.1767,-0.184,-0.1847,-0.1896,-0.1919,-0.1987,-0.2017,-0.2009,-0.2054,-0.2072,-0.2076,-0.202,-0.2016,-0.2013,-0.193,-0.2017,0,0,0,0,0,-0.1625,-0.1617,-0.1651,-0.1663,-0.1678,-0.1711,-0.1736,-0.1769,-0.182,-0.1852,-0.1912,-0.1961,-0.1998,-0.2026,-0.2089,-0.2125,-0.2105,-0.2111,-0.2107,-0.2104,-0.2049,-0.2037,-0.2026,-0.2146,-0.2146,-0.2146,0,0,-0.163,-0.163,-0.1627,-0.1665,-0.1687,-0.1695,-0.173,-0.1773,-0.1764,-0.1858,-0.1893,-0.1974,-0.2014,-0.2061,-0.2087,-0.2083,-0.2062,-0.2105,-0.2102,-0.2047,-0.2036,-0.2024,-0.2013,-0.2147,-0.2147,-0.2147,0,0,-0.1624,-0.1638,-0.1632,-0.1661,-0.1702,-0.1709,-0.1718,-0.1776,-0.1793,-0.1854,-0.1896,-0.1951,-0.2041,-0.2043,-0.2048,-0.2057,-0.2061,-0.2094,-0.1993,-0.1983,-0.1972,-0.1961,-0.1921,-0.1907,-0.2073,-0.2073,-0.2073,0,-0.1627,-0.1619,-0.1649,-0.1657,-0.1657,-0.1699,-0.1699,-0.1711,-0.18,-0.1817,-0.1862,-0.196,-0.1998,-0.1985,-0.198,-0.2038,-0.2043,-0.2004,-0.1974,-0.1963,-0.1954,-0.1914,-0.19,-0.207,-0.207,-0.2071,-0.2071,0,-0.1626,-0.1618,-0.1615,-0.1605,-0.163,-0.1638,-0.1651,-0.1688,-0.1707,-0.1738,-0.1791,-0.1862,-0.1911,-0.1924,-0.1944,-0.1896,-0.1927,-0.1986,-0.1972,-0.1936,-0.1899,-0.1885,-0.2066,-0.2067,-0.2068,-0.2069,0,0,-0.1589,-0.1602,-0.1603,-0.1594,-0.1597,-0.1623,-0.1588,-0.1595,-0.1595,-0.1667,-0.1665,-0.1694,-0.1765,-0.177,-0.182,-0.178,-0.1708,-0.184,-0.1841,-0.1774,-0.1677,-0.158,-0.1557,-0.179,-0.1787,-0.1785,-0.1677,0,-0.1559,-0.156,-0.1569,-0.1545,-0.1527,-0.1548,-0.1524,-0.155,-0.1576,-0.1608,-0.162,-0.1668,-0.1689,-0.174,-0.1695,-0.1737,-0.1671,-0.173,-0.1739,-0.1736,-0.1636,-0.1536,-0.1452,-0.1338,-0.1663,-0.1661,-0.1659,0,-0.152,-0.1529,-0.1512,-0.1505,-0.1507,-0.1506,-0.1501,-0.15,-0.1519,-0.1554,-0.1576,-0.163,-0.1577,-0.1621,-0.1564,-0.1622,-0.1607,-0.1611,-0.161,-0.1516,-0.1612,-0.1429,-0.1301,-0.1636,-0.1638,-0.164,-0.1641,0,-0.1464,-0.1463,-0.1446,-0.1447,-0.1465,-0.1468,-0.1477,-0.1501,-0.1504,-0.1526,-0.1552,-0.1544,-0.1544,-0.1523,-0.15,-0.1554,-0.1434,-0.1529,-0.1405,-0.14,-0.1314,-0.1304,-0.1435,-0.1435,-0.1435,-0.1435,-0.1436,0,-0.1382,-0.1376,-0.1433,-0.1436,-0.1441,-0.1463,-0.1471,-0.1492,-0.1507,-0.151,-0.1532,-0.1518,-0.1523,-0.1474,-0.1463,-0.1355,-0.1401,-0.1318,-0.1342,-0.1292,-0.1282,-0.1542,-0.1556,-0.1431,-0.1432,-0.1433,-0.1434,0,-0.1319,-0.1335,-0.1344,-0.1398,-0.1408,-0.1433,-0.1464,-0.1473,-0.1494,-0.1486,-0.1487,-0.1477,-0.1403,-0.137,-0.1321,-0.1287,-0.1223,-0.1174,-0.1085,-0.1096,-0.1207,-0.122,-0.1022,-0.1018,-0.1014,-0.101,-0.1007,0,-0.1292,-0.1285,-0.1351,-0.1356,-0.1382,-0.1413,-0.142,-0.1459,-0.1455,-0.1453,-0.1433,-0.1367,-0.1311,-0.1168,-0.1069,-0.0966,-0.107,-0.0847,-0.0899,-0.1109,-0.1153,-0.1173,-0.119,-0.0776,-0.0772,-0.0768,-0.0765,0,-0.1258,-0.1289,-0.1313,-0.1318,-0.1331,-0.1349,-0.1361,-0.1363,-0.1388,-0.138,-0.1341,-0.1302,-0.1136,-0.0983,-0.0822,-0.0759,-0.086,-0.0766,-0.0998,-0.0891,-0.0867,-0.0915,-0.0942,-0.0732,-0.0735,-0.0738,-0.0739,-0.0741,-0.1253,-0.1254,-0.1258,-0.125,-0.1258,-0.1242,-0.1229,-0.1242,-0.1226,-0.1172,-0.121,-0.1105,-0.1044,-0.0736,-0.0626,-0.0493,-0.0579,-0.0581,-0.0597,-0.0616,-0.0604,-0.0574,-0.0379,-0.0381,-0.0382,-0.0383,-0.0384,0,-0.1191,-0.1171,-0.1171,-0.1138,-0.1094,-0.1136,-0.1135,-0.1092,-0.1045,-0.1022,-0.0974,-0.0818,-0.0685,-0.0594,-0.0348,-0.0278,-0.0304,-0.0251,-0.0341,-0.0371,-0.0399,-0.0382,-0.0095,-0.0095,-0.0094,-0.0094,0,0,-0.115,-0.1084,-0.1056,-0.0938,-0.093,-0.0845,-0.0834,-0.0813,-0.0775,-0.0698,-0.0641,-0.0665,-0.063,-0.0429,-0.0325,-0.0188,-0.028,-0.0134,-0.0363,-0.0504,-0.0532,-0.0576,-0.058,0,0,0,0,0]},{"header":{"parameterUnit":"m.s-1","parameterCategory":2,"la1":30.2991,"la2":30.254,"lo1":-89.0895,"lo2":-89.0444,"dy":0.0017,"dx":0.0017,"nx":28,"ny":28,"refTime":"2024-08-15T09:00:00:Z","depth":"2","parameterNumber":3,"parameterNumberName":"V-component_of_CURRENTS"},"data":[0,0,0,0,0,0,0,0,0,0,0,0,0,0,0,0,0,0,0,0,0,0,0,0,0,0,0,0,0,0,0,0,0,0,0,0,0,0,0,0,0,0,0,0,0,0,0,0,0,0,0,0,0,0,0,0,0,0,-0.0611,-0.0611,0,-0.0561,-0.056,-0.0559,-0.0499,-0.0498,-0.0498,-0.0497,-0.0259,-0.0253,-0.0247,0,0,0,0,0,0,0,0,0,0,0,0,0,-0.0624,-0.0624,-0.0611,-0.0611,-0.0611,-0.0561,-0.056,-0.0559,-0.0499,-0.0498,-0.0498,-0.0497,-0.0261,-0.0254,-0.0247,0,0,0,0,0,0,0,0,0,0,0,0,0,-0.0596,-0.0624,-0.0611,-0.0579,-0.0576,-0.0561,-0.056,-0.0558,-0.0499,-0.0498,-0.0498,-0.0497,-0.0263,-0.0254,-0.0246,-0.0204,0,0,-0.0218,-0.0214,0,0,0,0,0,0,0,0,-0.0598,-0.0595,-0.0584,-0.0581,-0.0578,-0.054,-0.0477,-0.0432,-0.0499,-0.0523,-0.0497,-0.0497,-0.0339,-0.0324,-0.0311,-0.0193,-0.0183,-0.0218,-0.0212,-0.0208,-0.0206,0,0,0,0,0,0,0,-0.06,-0.0597,-0.0586,-0.0584,-0.058,-0.0557,-0.0551,-0.0469,-0.0428,-0.0521,-0.0517,-0.052,-0.0335,-0.032,-0.0305,-0.0179,-0.0218,-0.021,-0.0204,-0.0201,0.0066,0.0068,0,0,0,0,0,0,-0.0619,-0.0599,-0.0588,-0.0585,-0.0592,-0.0557,-0.0551,-0.0548,-0.0433,-0.0417,-0.0521,-0.0518,-0.0336,-0.0315,-0.0296,-0.0205,-0.0208,-0.02,-0.0195,0.0064,0.0067,0.0068,0,0,0,0,0,0,-0.0619,-0.0618,-0.059,-0.0595,-0.059,-0.0559,-0.0555,-0.0548,-0.053,-0.0436,-0.0416,-0.0511,-0.0334,-0.0308,-0.021,-0.0196,-0.0196,-0.0188,0.0062,0.0065,0.0068,-0.0044,0,0,0,0,0,0,-0.062,-0.0618,-0.0611,-0.0596,-0.0591,-0.0569,-0.0556,-0.0548,-0.0535,-0.053,-0.042,-0.0398,-0.0332,-0.0224,-0.0201,-0.0184,-0.0181,0.006,0.0064,0.0067,-0.0043,-0.0046,-0.0048,0,0,0,0,0,-0.062,-0.0613,-0.0611,-0.0609,-0.0586,-0.0569,-0.0563,-0.0535,-0.0536,-0.0518,-0.0446,-0.0401,-0.0186,-0.0216,-0.0189,-0.0169,0.0059,0.0063,0.0066,-0.0041,-0.0045,-0.0048,0,0,0,0,0,0,-0.0615,-0.0606,-0.0603,-0.0594,-0.058,-0.0561,-0.0546,-0.054,-0.0476,-0.0466,-0.0383,-0.0354,-0.0259,-0.0192,-0.0227,-0.0077,-0.0054,-0.0045,-0.0145,-0.0147,-0.015,-0.0202,-0.0174,0,0,0,0,0,-0.0615,-0.0607,-0.0597,-0.0591,-0.0584,-0.057,-0.0559,-0.0546,-0.05,-0.0474,-0.0398,-0.0307,-0.0223,-0.0172,-0.0078,-0.0004,0.003,0.0033,0.003,0.0026,0.0006,0.0067,0.0066,0.0082,0.0081,0.0081,0,0,-0.0619,-0.061,-0.0608,-0.059,-0.0577,-0.0568,-0.0559,-0.0546,-0.0545,-0.0453,-0.0399,-0.0309,-0.0202,-0.0116,-0.0067,-0.0061,0.0042,0.0032,0.0027,0.0008,0.0071,0.0069,0.0067,0.0084,0.0084,0.0083,0,0,-0.0623,-0.0609,-0.0603,-0.0587,-0.0573,-0.0564,-0.0566,-0.0538,-0.0527,-0.0476,-0.0404,-0.0324,-0.0189,-0.0123,-0.0073,-0.0034,0.0027,0.0022,-0.004,0.002,0.0017,0.0015,0.0042,0.0043,0.0016,0.0016,0.0015,0,-0.0624,-0.0615,-0.0598,-0.0585,-0.0576,-0.0568,-0.0562,-0.0557,-0.05,-0.0477,-0.0464,-0.0282,-0.0207,-0.0115,-0.011,-0.0048,-0.0005,-0.0048,0.0009,0.0008,0.0008,0.0036,0.0039,0.0011,0.0011,0.0012,0.0012,0,-0.0625,-0.0611,-0.0605,-0.0588,-0.0575,-0.0566,-0.0563,-0.0546,-0.0536,-0.0511,-0.0424,-0.0334,-0.0225,-0.0188,-0.0148,-0.0087,-0.0055,-0.0006,-0.0003,-0.0001,0.003,0.0035,0.0004,0.0005,0.0007,0.0008,0,0,-0.0641,-0.0611,-0.0608,-0.0594,-0.0573,-0.0563,-0.0568,-0.055,-0.0539,-0.0493,-0.0458,-0.036,-0.0307,-0.0248,-0.0172,-0.0145,-0.013,-0.0089,-0.0084,-0.0101,-0.0011,0.0005,0.0013,-0.0062,-0.0061,-0.0061,0.0002,0,-0.0644,-0.0622,-0.0609,-0.0591,-0.0577,-0.0565,-0.0565,-0.0546,-0.0526,-0.0483,-0.0431,-0.0351,-0.0331,-0.0272,-0.0246,-0.014,-0.0117,-0.0153,0.0023,0.0026,0.0011,0.0019,0.0023,0.008,0.0008,0.0009,0.0009,0,-0.064,-0.0628,-0.0611,-0.058,-0.0573,-0.0565,-0.0543,-0.054,-0.0498,-0.0475,-0.0416,-0.0356,-0.0306,-0.0288,-0.0178,-0.0193,-0.0123,-0.0067,-0.0061,-0.0008,0.0053,0.0076,0.0093,0.0018,0.0018,0.0017,0.0016,0,-0.0646,-0.062,-0.0607,-0.0595,-0.057,-0.0564,-0.0554,-0.0523,-0.0517,-0.046,-0.0433,-0.0354,-0.0306,-0.0228,-0.0146,-0.0144,-0.003,0.0004,0.0078,0.0079,0.0133,0.0138,0.0076,0.0076,0.0076,0.0076,0.0076,0,-0.0636,-0.0623,-0.0606,-0.0597,-0.0589,-0.0561,-0.0547,-0.053,-0.0493,-0.0468,-0.042,-0.0382,-0.0287,-0.0215,-0.0143,-0.0031,-0.002,0.0054,0.01,0.0096,0.0097,0.0091,0.0092,0.0078,0.0078,0.0077,0.0077,0,-0.0634,-0.0619,-0.061,-0.0594,-0.059,-0.0582,-0.0565,-0.0555,-0.0515,-0.0487,-0.0472,-0.0393,-0.0296,-0.021,-0.0069,-0.0016,0.0088,0.0134,0.0098,0.0137,0.0151,0.0146,0.0213,0.0214,0.0216,0.0216,0.0217,0,-0.0627,-0.0623,-0.0625,-0.0632,-0.0626,-0.0616,-0.0617,-0.0576,-0.0569,-0.0495,-0.0484,-0.038,-0.0309,-0.0124,0.0008,0.014,0.0137,0.0213,0.0211,0.0128,0.0166,0.016,0.0154,0.0236,0.0236,0.0237,0.0238,0,-0.0633,-0.0641,-0.0646,-0.0671,-0.0673,-0.068,-0.0673,-0.0667,-0.0618,-0.0586,-0.0516,-0.0443,-0.0242,-0.0079,0.0096,0.017,0.0184,0.0231,0.0188,0.0195,0.0154,0.0189,0.0182,0.0243,0.0243,0.0242,0.0242,0.0242,-0.0652,-0.0668,-0.0691,-0.0713,-0.0726,-0.0748,-0.0746,-0.0729,-0.071,-0.0629,-0.0562,-0.0418,-0.0241,0.0027,0.0154,0.0275,0.0263,0.0288,0.0284,0.0281,0.0267,0.0229,0.0328,0.0328,0.0328,0.0328,0.0328,0,-0.0679,-0.0701,-0.0732,-0.0758,-0.0786,-0.0786,-0.0789,-0.0767,-0.0737,-0.0627,-0.0546,-0.0352,-0.0153,0.0042,0.0254,0.0354,0.0341,0.0359,0.0331,0.0325,0.032,0.0306,0.0379,0.038,0.038,0.038,0,0,-0.0693,-0.0734,-0.0757,-0.0812,-0.083,-0.0846,-0.0846,-0.0798,-0.0716,-0.0597,-0.0466,-0.034,-0.0108,0.0038,0.0177,0.0299,0.0277,0.0301,0.025,0.0194,0.0188,0.0271,0.0242,0,0,0,0,0]}],[{"header":{"parameterUnit":"m.s-1","parameterCategory":2,"la1":30.2991,"la2":30.254,"lo1":-89.0895,"lo2":-89.0444,"dy":0.0017,"dx":0.0017,"nx":28,"ny":28,"refTime":"2024-08-15T09:00:00:Z","depth":"4","parameterNumber":2,"parameterNumberName":"U-component_of_CURRENTS"},"data":[0,0,0,0,0,0,0,0,0,0,0,0,0,0,0,0,0,0,0,0,0,0,0,0,0,0,0,0,0,0,0,0,0,0,0,0,0,0,0,0,0,0,0,0,0,0,0,0,0,0,0,0,0,0,0,0,0,0,-0.0916,-0.0916,0,-0.0949,-0.0949,-0.095,-0.0968,-0.0968,-0.0967,-0.0967,-0.1038,-0.104,-0.1042,0,0,0,0,0,0,0,0,0,0,0,0,0,-0.091,-0.091,-0.0916,-0.0916,-0.0916,-0.0949,-0.0949,-0.095,-0.0968,-0.0968,-0.0967,-0.0967,-0.1037,-0.1039,-0.1042,0,0,0,0,0,0,0,0,0,0,0,0,0,-0.0927,-0.091,-0.0916,-0.0927,-0.0928,-0.0949,-0.0949,-0.095,-0.0968,-0.0968,-0.0967,-0.0967,-0.1036,-0.1039,-0.1042,-0.1066,0,0,-0.1051,-0.1053,0,0,0,0,0,0,0,0,-0.0926,-0.0927,-0.0925,-0.0926,-0.0928,-0.0952,-0.0973,-0.099,-0.0968,-0.0955,-0.0967,-0.0967,-0.1011,-0.1016,-0.1026,-0.1069,-0.1072,-0.1052,-0.1054,-0.1055,-0.1056,0,0,0,0,0,0,0,-0.0924,-0.0926,-0.0931,-0.0925,-0.0927,-0.0945,-0.0947,-0.0977,-0.0987,-0.0956,-0.0957,-0.0957,-0.1012,-0.1023,-0.1028,-0.1073,-0.1052,-0.1054,-0.1056,-0.1057,-0.1126,-0.1126,0,0,0,0,0,0,-0.0914,-0.0925,-0.093,-0.0932,-0.0923,-0.0945,-0.0947,-0.0946,-0.0986,-0.099,-0.0957,-0.0958,-0.1018,-0.1024,-0.103,-0.1073,-0.1055,-0.1058,-0.1059,-0.1126,-0.1126,-0.1126,0,0,0,0,0,0,-0.0913,-0.0914,-0.0929,-0.0927,-0.093,-0.0945,-0.0944,-0.0947,-0.0975,-0.0986,-0.0992,-0.0983,-0.1018,-0.1026,-0.1054,-0.1076,-0.1059,-0.1062,-0.1126,-0.1126,-0.1126,-0.1152,0,0,0,0,0,0,-0.0913,-0.0914,-0.0924,-0.0926,-0.093,-0.0953,-0.0944,-0.0948,-0.0973,-0.0975,-0.101,-0.1015,-0.1018,-0.1049,-0.1057,-0.1079,-0.1064,-0.1126,-0.1126,-0.1126,-0.1151,-0.1152,-0.1154,0,0,0,0,0,-0.0913,-0.093,-0.0924,-0.0925,-0.0938,-0.0954,-0.0959,-0.0969,-0.0975,-0.0993,-0.1002,-0.1015,-0.1054,-0.1052,-0.1061,-0.1085,-0.1126,-0.1126,-0.1126,-0.115,-0.1152,-0.1154,0,0,0,0,0,0,-0.0936,-0.0933,-0.0927,-0.0942,-0.095,-0.0957,-0.0981,-0.0984,-0.1007,-0.1012,-0.1022,-0.1028,-0.1059,-0.1065,-0.1062,-0.11,-0.109,-0.1092,-0.1106,-0.1108,-0.1109,-0.1128,-0.1067,0,0,0,0,0,-0.0942,-0.095,-0.0949,-0.0961,-0.0972,-0.098,-0.0993,-0.0995,-0.1008,-0.1019,-0.1035,-0.1049,-0.1064,-0.108,-0.1094,-0.1125,-0.1123,-0.1141,-0.1143,-0.1144,-0.1163,-0.1183,-0.1189,-0.1126,-0.1126,-0.1126,0,0,-0.0956,-0.0952,-0.0959,-0.0967,-0.0979,-0.0984,-0.0989,-0.1013,-0.1018,-0.1024,-0.105,-0.1062,-0.1072,-0.1096,-0.1111,-0.1107,-0.1151,-0.1144,-0.1146,-0.1164,-0.1184,-0.119,-0.1196,-0.1126,-0.1126,-0.1126,0,0,-0.0966,-0.0985,-0.0987,-0.0995,-0.1005,-0.101,-0.102,-0.1033,-0.1049,-0.1064,-0.1067,-0.1099,-0.1113,-0.1134,-0.1142,-0.1166,-0.1159,-0.1159,-0.119,-0.1209,-0.1215,-0.122,-0.1187,-0.119,-0.1161,-0.1161,-0.1161,0,-0.0981,-0.0978,-0.0994,-0.0993,-0.1003,-0.1021,-0.1027,-0.1044,-0.106,-0.1082,-0.1072,-0.1117,-0.1135,-0.1176,-0.1177,-0.1176,-0.1159,-0.1184,-0.1213,-0.1219,-0.1224,-0.1189,-0.1192,-0.1162,-0.1162,-0.1162,-0.1162,0,-0.0974,-0.0985,-0.0997,-0.0993,-0.1009,-0.1027,-0.104,-0.107,-0.1086,-0.1094,-0.1143,-0.1162,-0.1194,-0.1198,-0.1196,-0.1244,-0.1207,-0.1213,-0.1213,-0.1232,-0.1193,-0.1195,-0.1164,-0.1163,-0.1163,-0.1163,0,0,-0.0974,-0.0988,-0.0994,-0.1004,-0.1016,-0.1033,-0.1057,-0.1092,-0.1127,-0.1144,-0.1182,-0.1221,-0.1244,-0.1256,-0.1268,-0.1288,-0.13,-0.1265,-0.1265,-0.124,-0.1297,-0.1166,-0.1155,-0.1306,-0.1307,-0.1308,-0.1241,0,-0.0966,-0.0975,-0.0978,-0.1001,-0.1016,-0.1047,-0.1072,-0.1106,-0.1136,-0.1178,-0.1219,-0.1253,-0.1259,-0.1281,-0.1306,-0.1306,-0.1313,-0.1316,-0.1276,-0.1275,-0.1164,-0.1157,-0.1313,-0.1242,-0.1243,-0.1243,-0.1243,0,-0.0945,-0.0963,-0.0982,-0.1026,-0.1039,-0.1054,-0.1125,-0.1145,-0.1204,-0.1229,-0.1276,-0.1293,-0.1339,-0.1334,-0.1355,-0.1349,-0.1331,-0.1323,-0.132,-0.1199,-0.115,-0.1228,-0.1247,-0.1247,-0.1246,-0.1246,-0.1246,0,-0.0935,-0.0966,-0.099,-0.1001,-0.1047,-0.1082,-0.1114,-0.1171,-0.12,-0.1266,-0.1281,-0.1336,-0.135,-0.1363,-0.1335,-0.1349,-0.1322,-0.1341,-0.1204,-0.1192,-0.1321,-0.1317,-0.1359,-0.1359,-0.1359,-0.1359,-0.1359,0,-0.0914,-0.0941,-0.1,-0.1016,-0.1069,-0.1096,-0.115,-0.1197,-0.1244,-0.1259,-0.1311,-0.1318,-0.1359,-0.1338,-0.133,-0.1245,-0.1316,-0.1205,-0.1175,-0.1325,-0.1322,-0.132,-0.1316,-0.1357,-0.1357,-0.1358,-0.1358,0,-0.0887,-0.0917,-0.0963,-0.1036,-0.1059,-0.1102,-0.1156,-0.1184,-0.1239,-0.1255,-0.1269,-0.13,-0.1259,-0.1254,-0.1246,-0.1209,-0.1166,-0.1119,-0.1232,-0.121,-0.1025,-0.1024,-0.0976,-0.0971,-0.0966,-0.0963,-0.096,0,-0.087,-0.089,-0.098,-0.0999,-0.1033,-0.1091,-0.1113,-0.1179,-0.1185,-0.1223,-0.1209,-0.1194,-0.1192,-0.1062,-0.1084,-0.1023,-0.1019,-0.099,-0.1063,-0.1015,-0.0991,-0.0996,-0.1,-0.0953,-0.0952,-0.0951,-0.095,0,-0.0852,-0.0894,-0.093,-0.0964,-0.0997,-0.1027,-0.1059,-0.1061,-0.1104,-0.1168,-0.1115,-0.1081,-0.1011,-0.0981,-0.091,-0.0888,-0.1016,-0.0947,-0.0957,-0.1026,-0.0987,-0.0969,-0.0978,-0.0935,-0.0937,-0.0939,-0.094,0,-0.0846,-0.0856,-0.0888,-0.0905,-0.0934,-0.0918,-0.0967,-0.0951,-0.0968,-0.1013,-0.099,-0.0971,-0.0995,-0.0906,-0.0858,-0.0797,-0.0809,-0.0816,-0.0833,-0.085,-0.0838,-0.0772,-0.0624,0,0,0,0,0,-0.0823,-0.0794,-0.081,-0.0808,-0.083,-0.0835,-0.0887,-0.093,-0.0983,-0.0915,-0.0948,-0.088,-0.0802,-0.0806,-0.0714,-0.0791,-0.0804,-0.0683,-0.0821,-0.0854,-0.0871,-0.0869,0,0,0,0,0,0,-0.0795,-0.08,-0.0777,-0.0703,-0.0677,-0.0681,-0.071,-0.0765,-0.0736,-0.0804,-0.0763,-0.0817,-0.075,-0.0816,-0.0688,-0.0684,-0.0752,-0.0683,-0.068,-0.0845,-0.086,-0.0874,-0.0877,0,0,0,0,0]},{"header":{"parameterUnit":"m.s-1","parameterCategory":2,"la1":30.2991,"la2":30.254,"lo1":-89.0895,"lo2":-89.0444,"dy":0.0017,"dx":0.0017,"nx":28,"ny":28,"refTime":"2024-08-15T09:00:00:Z","depth":"4","parameterNumber":3,"parameterNumberName":"V-component_of_CURRENTS"},"data":[0,0,0,0,0,0,0,0,0,0,0,0,0,0,0,0,0,0,0,0,0,0,0,0,0,0,0,0,0,0,0,0,0,0,0,0,0,0,0,0,0,0,0,0,0,0,0,0,0,0,0,0,0,0,0,0,0,0,-0.0485,-0.0485,0,-0.0476,-0.0476,-0.0476,-0.0479,-0.0479,-0.048,-0.048,-0.043,-0.0428,-0.0427,0,0,0,0,0,0,0,0,0,0,0,0,0,-0.0473,-0.0474,-0.0485,-0.0485,-0.0484,-0.0476,-0.0476,-0.0476,-0.0479,-0.0479,-0.048,-0.048,-0.043,-0.0429,-0.0427,0,0,0,0,0,0,0,0,0,0,0,0,0,-0.0473,-0.0474,-0.0485,-0.0484,-0.0484,-0.0476,-0.0476,-0.0476,-0.0479,-0.0479,-0.048,-0.048,-0.0431,-0.0429,-0.0427,-0.0409,0,0,-0.042,-0.0419,0,0,0,0,0,0,0,0,-0.0473,-0.0474,-0.0485,-0.0484,-0.0484,-0.0478,-0.0454,-0.0452,-0.0479,-0.0482,-0.048,-0.048,-0.0442,-0.0439,-0.0438,-0.0407,-0.0405,-0.042,-0.0418,-0.0418,-0.0417,0,0,0,0,0,0,0,-0.0474,-0.0474,-0.0482,-0.0484,-0.0484,-0.0474,-0.0475,-0.0453,-0.0461,-0.0482,-0.0482,-0.048,-0.0441,-0.044,-0.0437,-0.0404,-0.042,-0.0418,-0.0417,-0.0416,-0.0395,-0.0396,0,0,0,0,0,0,-0.0475,-0.0474,-0.0482,-0.0482,-0.0478,-0.0474,-0.0475,-0.0481,-0.0462,-0.0459,-0.0479,-0.048,-0.0444,-0.0439,-0.0435,-0.0432,-0.0418,-0.0416,-0.0414,-0.0394,-0.0395,-0.0396,0,0,0,0,0,0,-0.0475,-0.0476,-0.0483,-0.0477,-0.0477,-0.0474,-0.0481,-0.048,-0.0484,-0.046,-0.0457,-0.0484,-0.0444,-0.0438,-0.0437,-0.0429,-0.0415,-0.0413,-0.0393,-0.0394,-0.0395,-0.0413,0,0,0,0,0,0,-0.0474,-0.0476,-0.0481,-0.0477,-0.0477,-0.0488,-0.048,-0.048,-0.0482,-0.0482,-0.0463,-0.0458,-0.0444,-0.044,-0.0435,-0.0426,-0.0411,-0.0392,-0.0394,-0.0395,-0.0411,-0.0414,-0.0417,0,0,0,0,0,-0.0474,-0.0478,-0.0481,-0.0482,-0.0484,-0.0488,-0.0488,-0.0486,-0.0482,-0.0489,-0.0484,-0.0459,-0.0445,-0.044,-0.0433,-0.0423,-0.0392,-0.0393,-0.0395,-0.041,-0.0414,-0.0417,0,0,0,0,0,0,-0.0472,-0.0478,-0.0482,-0.0487,-0.0493,-0.0489,-0.0488,-0.0489,-0.049,-0.049,-0.0469,-0.0464,-0.046,-0.0445,-0.044,-0.0424,-0.0413,-0.0414,-0.0427,-0.043,-0.0433,-0.0417,-0.0409,0,0,0,0,0,-0.0475,-0.0483,-0.0487,-0.0493,-0.0493,-0.0492,-0.0492,-0.0496,-0.0495,-0.0496,-0.0485,-0.0473,-0.046,-0.045,-0.0441,-0.0429,-0.0389,-0.042,-0.0423,-0.0425,-0.041,-0.033,-0.0322,-0.0401,-0.0401,-0.0401,0,0,-0.0478,-0.048,-0.0486,-0.0493,-0.0493,-0.05,-0.0493,-0.0499,-0.0507,-0.0488,-0.0495,-0.0483,-0.0462,-0.0456,-0.0451,-0.0442,-0.0392,-0.0427,-0.0429,-0.0412,-0.033,-0.0322,-0.0315,-0.0402,-0.0402,-0.0402,0,0,-0.0482,-0.0487,-0.0494,-0.0499,-0.0505,-0.0507,-0.0511,-0.0515,-0.052,-0.0532,-0.0515,-0.0497,-0.0493,-0.0464,-0.045,-0.0459,-0.0413,-0.0466,-0.0458,-0.0381,-0.0373,-0.0365,-0.034,-0.033,-0.0463,-0.0463,-0.0463,0,-0.0484,-0.0495,-0.0497,-0.0503,-0.0505,-0.0511,-0.0519,-0.0525,-0.0534,-0.0527,-0.0542,-0.0506,-0.0489,-0.0448,-0.046,-0.0459,-0.0429,-0.0444,-0.0381,-0.0372,-0.0363,-0.034,-0.0328,-0.0464,-0.0464,-0.0464,-0.0464,0,-0.0494,-0.0503,-0.0504,-0.0517,-0.0523,-0.0531,-0.0539,-0.0548,-0.0556,-0.0553,-0.0533,-0.0514,-0.0482,-0.0481,-0.0475,-0.041,-0.0416,-0.0394,-0.0364,-0.0356,-0.0333,-0.032,-0.0465,-0.0465,-0.0465,-0.0465,0,0,-0.0498,-0.051,-0.0511,-0.0516,-0.0531,-0.0534,-0.0548,-0.0548,-0.0539,-0.0548,-0.0521,-0.0502,-0.0477,-0.046,-0.0438,-0.0379,-0.0311,-0.0367,-0.0362,-0.033,-0.0175,-0.0196,-0.0185,-0.0272,-0.0269,-0.0267,-0.0196,0,-0.0504,-0.0515,-0.0522,-0.0535,-0.0539,-0.0546,-0.0553,-0.0554,-0.0554,-0.0533,-0.0498,-0.0471,-0.0473,-0.0451,-0.0392,-0.0332,-0.0273,-0.0335,-0.0199,-0.0195,-0.0202,-0.0168,-0.0258,-0.0186,-0.0183,-0.0181,-0.018,0,-0.0509,-0.0516,-0.0529,-0.0534,-0.0535,-0.0546,-0.0541,-0.0548,-0.0521,-0.0513,-0.0473,-0.0449,-0.0382,-0.0377,-0.0254,-0.0296,-0.0231,-0.0185,-0.0181,-0.0176,-0.019,-0.0189,-0.0156,-0.0158,-0.016,-0.0161,-0.0163,0,-0.0503,-0.0516,-0.0525,-0.053,-0.0543,-0.0545,-0.055,-0.0537,-0.0532,-0.0487,-0.0471,-0.0397,-0.0357,-0.0264,-0.0202,-0.0211,-0.0067,-0.0061,-0.0019,-0.0023,-0.0017,-0.0026,0.0063,0.0063,0.0063,0.0063,0.0063,0,-0.0498,-0.0505,-0.0523,-0.0529,-0.0536,-0.054,-0.0538,-0.0531,-0.0505,-0.0488,-0.045,-0.0414,-0.0319,-0.0247,-0.018,-0.0078,-0.0044,-0.0003,0.0014,-0.0036,-0.0047,-0.0011,-0.002,0.0065,0.0065,0.0064,0.0064,0,-0.0488,-0.0498,-0.0514,-0.0531,-0.0536,-0.0541,-0.0546,-0.0542,-0.0514,-0.0488,-0.0473,-0.0407,-0.0316,-0.024,-0.0093,-0.0052,0.005,0.0085,-0.001,-0.0002,0.0033,0.0021,0.0149,0.0149,0.0149,0.0149,0.015,0,-0.0481,-0.0491,-0.0523,-0.0539,-0.0549,-0.0558,-0.057,-0.0551,-0.0545,-0.0489,-0.0474,-0.0384,-0.0338,-0.0169,-0.0076,0.0052,0.0075,0.0114,0.0111,0.0048,0.0051,0.0039,0.0027,0.015,0.015,0.015,0.015,0,-0.048,-0.0498,-0.0517,-0.0556,-0.0575,-0.0592,-0.06,-0.0586,-0.0562,-0.0534,-0.0465,-0.038,-0.0277,-0.0164,-0.0068,0.0027,0.0079,0.0117,0.0117,0.0115,0.0051,0.0051,0.0039,0.0151,0.0151,0.0151,0.0151,0,-0.0486,-0.0504,-0.0542,-0.0571,-0.0602,-0.0622,-0.0617,-0.0602,-0.0582,-0.0515,-0.0489,-0.0381,-0.0311,-0.0174,-0.0084,-0.0001,0.0031,0.0054,0.0058,0.0059,0.0007,-0.009,0.0001,0,0,0,0,0,-0.0493,-0.0522,-0.0557,-0.0587,-0.062,-0.064,-0.0644,-0.0633,-0.0595,-0.0553,-0.0518,-0.0426,-0.0275,-0.0202,-0.0118,-0.0077,0.0039,0.0024,0.0066,0.0156,0.0155,0.0108,0,0,0,0,0,0,-0.05,-0.0539,-0.056,-0.0603,-0.0626,-0.0659,-0.0665,-0.064,-0.0606,-0.0556,-0.0475,-0.0415,-0.0269,-0.033,-0.0121,-0.0092,-0.0055,0.01,0.0102,0.0156,0.0155,0.0154,0.0106,0,0,0,0,0]}]]